Regional Weather Roundup
Issued by NWS

Home | Current Version | Previous Version | Graphics & Text | Print | Product List | Glossary On
Versions: 1 2 3 4 5 6 7 8 9 10 11 12 13 14 15 16 17 18 19 20 21 22 23 24 25 26 27 28 29 30 31 32 33 34 35 36 37 38 39 40 41 42 43 44 45 46 47 48 49 50
026
ASUS43 KMKX 301621
RWRWI

WISCONSIN REGIONAL WEATHER ROUNDUP
NATIONAL WEATHER SERVICE MILWAUKEE/SULLIVAN WI
1100 AM CDT THU MAR 30 2017

NOTE: "FAIR" INDICATES FEW OR NO CLOUDS BELOW 12,000 FEET WITH NO
SIGNIFICANT WEATHER AND/OR OBSTRUCTIONS TO VISIBILITY.

WIZ001-002-006>008-014>016-023>028-301700-
NORTHWEST WISCONSIN

CITY           SKY/WX    TMP DP  RH WIND       PRES   REMARKS
SUPERIOR ARPT  CLOUDY    37  33  85 E16       30.01F WCI  28
ASHLAND        CLOUDY    40  32  73 N8        30.00F WCI  34
HAYWARD        CLOUDY    44  31  60 E9        29.95F
SIREN          CLOUDY    42  30  61 E8        29.95S
CUMBERLAND     CLOUDY    39  32  75 E9        29.93S WCI  33
RICE LAKE      CLOUDY    40  33  74 E13       29.94S WCI  33
CHETEK         CLOUDY    39  32  77 E8        29.92F WCI  33
LADYSMITH      PTSUNNY   39  33  77 E10       29.94F WCI  33
EAU CLAIRE     CLOUDY    39  34  82 NE16G23   29.89F WCI  30
MENOMONIE      CLOUDY    39  35  83 NE16G25   29.90F WCI  31
NEW RICHMOND   CLOUDY    41  32  71 E13       29.90F
OSCEOLA        CLOUDY    43  34  71 E8G18     29.94F
$$

WIZ003>005-009-010-017-018-301700-
NORTH CENTRAL WISCONSIN

CITY           SKY/WX    TMP DP  RH WIND       PRES   REMARKS
MANITOWISH WTR CLOUDY    37  28  70 E6        29.96F WCI  33
ARBOR VITAE    CLOUDY    39  30  69 E8        29.94F WCI  34
WOODRUFF       CLOUDY    39  30  69 E8        29.94F WCI  34
RHINELANDER    CLOUDY    38  29  70 E12       29.96F WCI  30
EAGLE RIVER    CLOUDY    38  24  58 NE8       29.96F WCI  32
LAND O LAKES   CLOUDY    36  24  62 E7        30.00F WCI  30
PHILLIPS       CLOUDY    39  31  73 E12G17    29.93F WCI  32
TOMAHAWK       CLOUDY    38  30  73 NE7       29.95F WCI  32
MEDFORD        CLOUDY    36  32  85 E13G18    29.90F WCI  28
MERRILL        CLOUDY    37  31  80 E9        29.94F WCI  30
$$

WIZ029-030-035-036-043>047-301700-
CENTRAL WISCONSIN

CITY           SKY/WX    TMP DP  RH WIND       PRES   REMARKS
WAUSAU         CLOUDY    35  32  88 E10       29.92F WCI  27
MOSINEE        CLOUDY    36  34  93 E17       29.93F WCI  25
MARSHFIELD     CLOUDY    35  32  88 E15       29.88F WCI  25
STEVENS POINT  CLOUDY    33  32  99 E14G21    29.91F WCI  23
WAUPACA        LGT RAIN  36  34  92 NE12G22   29.92F WCI  28
WAUTOMA        LGT RAIN  36  34  92 NE17      29.87F WCI  26
WISC RAPIDS    CLOUDY    36  35  96 E16G25    29.90F WCI  26
CAMP DOUGLAS   CLOUDY    37  36  93 NE14G23   29.84F WCI  29
$$

WIZ011>013-019>022-031-037>040-048>050-301700-
NORTHEAST WISCONSIN

CITY           SKY/WX    TMP DP  RH WIND       PRES   REMARKS
ANTIGO         CLOUDY    35  32  91 E14       29.95F WCI  25
SHAWANO        LGT RAIN  36  33  90 NE13G18   29.96F WCI  27
OCONTO         CLOUDY    33  32  96 NE9G17    29.99F WCI  25
STURGEON BAY   FLURRIES  33  32  96 NE10G17   29.99F WCI  25
GREEN BAY      LGT SNOW  34  34 100 NE16      29.95F FOG     WCI  24
MANITOWOC      LGT RAIN  36  34  92 NE12      29.93F WCI  28
APPLETON       CLOUDY    34  34 100 NE14      29.89F WCI  24
CLINTONVILLE   FLURRIES  34  32  93 NE10G18   29.95F WCI  26
OSHKOSH        MIX PCPN  35  33  92 NE18      29.87F WCI  24
$$

WIZ032>034-041-042-053>061-301700-
SOUTHWEST WISCONSIN

CITY           SKY/WX    TMP DP  RH WIND       PRES   REMARKS
LA CROSSE      CLOUDY    40  36  86 NE10G22   29.84F WCI  33
SPARTA         LGT RAIN  37  36  96 E13G23    29.85F WCI  29
VIROQUA        CLOUDY    36  36  98 NE17G26   29.78F WCI  26
BOSCOBEL       LGT RAIN  40  37  89 NE9G18    29.78F WCI  34
PRAIRIE DU CHI LGT RAIN  38  37  97 NE12G17   29.76F WCI  31
PLATTEVILLE    CLOUDY    39  39 100 E21G28    29.72F WCI  29
$$

WIZ056-057-062-063-064-067-068-301700-
SOUTH CENTRAL WISCONSIN

CITY           SKY/WX    TMP DP  RH WIND       PRES   REMARKS
REEDSBURG      LGT RAIN  35  35 100 NE12G18   29.81F WCI  27
BARABOO/DELLS  RAIN      36  36 100 E17G25    29.80F WCI  25
LONE ROCK      RAIN      38  34  85 E16       29.80S FOG     WCI  29
MINERAL POINT  LGT RAIN  37  37 100 E13       29.75S WCI  29
MADISON        LGT RAIN  38  35  89 E21       29.78S WCI  28
MIDDLETON      CLOUDY    39  39 100 E16       29.79R WCI  30
WATERTOWN      LGT RAIN  37  37 100 E16G26    29.81S WCI  27
MONROE         RAIN      37  37 100 NE13G20   29.73F WCI  29
JANESVILLE     DRIZZLE   39  39 100 E17G23    29.73F WCI  30
$$

WIZ051-052-058>065-066-070>072-301700-
SOUTHEAST WISCONSIN

CITY           SKY/WX    TMP DP  RH WIND       PRES   REMARKS
MILWAUKEE      LGT RAIN  38  36  92 NE16      29.82F FOG     WCI  29
WAUKESHA       LGT RAIN  36  34  93 E17G30    29.81F FOG     WCI  25
MILWAUKEE/TIMM LGT RAIN  36  34  93 NE17      29.85F FOG     WCI  25
RACINE         LGT RAIN  39  37  92 NE12      29.82F FOG     WCI  32
KENOSHA        CLOUDY    40  38  93 E15       29.80F FOG     WCI  32
FOND DU LAC    LGT RAIN  40  35  83 E15G24    29.86F WCI  32
SHEBOYGAN      LGT RAIN  37  35  92 NE21G30   29.88F WCI  26
WEST BEND      LGT RAIN  36  36 100 E16       29.85F WCI  26
JUNEAU         LGT RAIN  36  35  95 E16G23    29.83F WCI  26
$$

LSZ147-162-301700-
LAKE SUPERIOR

STATION/POSITION TIME  TEMP    WIND        PRES    WAVE
                       AIR SEA DIR/SP/G            HT/PER
                 (UTC) (F)     (DEG/KT/KT) (MB)    (FT/S)
DEVILS ISLAND    1600   35      40/ 15/ 15 1017.5F
PORT WING        1530   36      30/ 15/ 18 1016.6F
SAXON HARBOR     1540   35     310/  3/  4 1015.9F
$$

LMZ867-665-643>646-301700-
LAKE MICHIGAN

STATION/POSITION TIME  TEMP    WIND        PRES    WAVE
                       AIR SEA DIR/SP/G            HT/PER
                 (UTC) (F)     (DEG/KT/KT) (MB)    (FT/S)
CHAMBERS ISLAND  1540   32      40/ 11/ 13 1016.3F
NORTHPORT PIER   1540   33      70/ 11/ 15 1017.3F
KEWAUNEE LAKESHO 1600   35      50/ 12/ 17 1014.0
SHEBOYGAN LAKESH 1600   37      40/ 21/ 24 1012.4F
PORT WASHINGTON  1540   38      50/ 14/ 20 1012.5F
MILWAUKEE LAKESH 1600   37      50/ 16/ 19   N/A
KENOSHA   LAKESH 1600   39      70/  8/ 11 1009.5
$$

TC  - TEMPERATURE IN CELSIUS
VSB - VISIBILITY IN STATUTE MILES
WCI - WIND CHILL INDEX
HX  - HEAT INDEX





USA.gov is the U.S. government's official web portal to all federal, state and local government web resources and services.